Tracking 19717 objects as of 25-Jun-2019
HD Live streaming from Space Station
objects crossing your sky now

SL-8 R/B

Track SL-8 R/B now!
10-day predictions


NORAD ID: 10992
Int'l Code: 1978-074B
Perigee: 965.1 km
Apogee: 991.9 km
Inclination: 82.9 °
Period: 104.5 minutes
Semi major axis: 7349 km
RCS: 4.7594 m2 (large)
Launch date: July 27, 1978
Source: Commonwealth of Independent States (former USSR) (CIS)
Launch site: PLESETSK MISSILE AND SPACE COMPLEX (PKMTR)

Note: This is a ROCKET BODY
aabbcc
Your satellite tracking list
Your tracking list is empty




NASA's NSSDC Master Catalog

Two Line Element Set (TLE):
1 10992U 78074B   19175.73339719 +.00000036 +00000-0 +20869-4 0  9990
2 10992 082.9343 084.9553 0018260 217.6105 170.7695 13.77903113236208
Source of the keplerian elements: AFSPC